TimeCST,TemperatureF,Dew PointF,Humidity,Sea Level PressureIn,VisibilityMPH,Wind Direction,Wind SpeedMPH,Gust SpeedMPH,PrecipitationIn,Events,Conditions,WindDirDegrees,DateUTC
12:15 AM,63.7,60.3,89,29.85,10.0,WNW,8.1,-,N/A,,Clear,300,2013-02-13 06:15:00
12:35 AM,62.8,59.5,89,29.86,10.0,NW,16.1,24.2,N/A,,Scattered Clouds,310,2013-02-13 06:35:00
1:15 AM,59.7,57.2,91,29.88,10.0,NW,13.8,20.7,N/A,,Clear,310,2013-02-13 07:15:00
1:35 AM,58.8,56.5,92,29.88,10.0,NW,10.4,17.3,N/A,,Scattered Clouds,310,2013-02-13 07:35:00
1:55 AM,57.9,55.8,92,29.89,7.0,WNW,8.1,-,N/A,,Clear,300,2013-02-13 07:55:00
2:15 AM,57.4,55.4,93,29.89,7.0,NW,12.7,-,N/A,,Scattered Clouds,310,2013-02-13 08:15:00
2:35 AM,56.5,54.7,94,29.89,7.0,WNW,5.8,9.2,N/A,,Scattered Clouds,300,2013-02-13 08:35:00
2:55 AM,55.8,54.5,96,29.90,10.0,WNW,5.8,-,N/A,,Clear,300,2013-02-13 08:55:00
3:15 AM,55.8,54.1,94,29.91,10.0,WNW,6.9,-,N/A,,Clear,300,2013-02-13 09:15:00
3:35 AM,55.0,53.8,96,29.91,10.0,WNW,5.8,-,N/A,,Clear,300,2013-02-13 09:35:00
3:55 AM,55.2,53.8,95,29.92,10.0,NW,8.1,-,N/A,,Clear,310,2013-02-13 09:55:00
4:15 AM,54.9,53.6,96,29.91,10.0,WNW,8.1,-,N/A,,Clear,300,2013-02-13 10:15:00
4:35 AM,54.5,53.2,96,29.90,10.0,NW,8.1,-,N/A,,Clear,320,2013-02-13 10:35:00
4:55 AM,54.5,52.9,94,29.93,10.0,WNW,5.8,-,N/A,,Scattered Clouds,300,2013-02-13 10:55:00
6:50 AM,53.6,51.8,94,29.95,7.0,NW,4.6,-,N/A,,Scattered Clouds,320,2013-02-13 12:50:00
7:50 AM,53.6,51.8,94,29.97,7.0,NW,16.1,-,N/A,,Scattered Clouds,320,2013-02-13 13:50:00
8:47 AM,55.4,51.8,88,29.99,7.0,NNW,12.7,-,N/A,,Overcast,330,2013-02-13 14:47:00
9:50 AM,55.4,50.0,82,30.02,7.0,NNW,16.1,-,N/A,,Overcast,330,2013-02-13 15:50:00
10:50 AM,53.6,48.2,82,30.04,7.0,NNW,11.5,-,N/A,,Overcast,330,2013-02-13 16:50:00
11:17 AM,53.6,48.2,82,30.04,6.0,WNW,18.4,-,N/A,Rain,Light Rain,300,2013-02-13 17:17:00
11:50 AM,50.0,44.6,82,30.04,7.0,WNW,17.3,-,N/A,,Overcast,300,2013-02-13 17:50:00
12:47 PM,46.4,44.6,93,30.03,7.0,NW,11.5,-,N/A,Rain,Light Rain,320,2013-02-13 18:47:00
1:49 PM,48.2,46.4,93,30.00,7.0,NW,11.5,-,N/A,Rain,Light Rain,320,2013-02-13 19:49:00
2:50 PM,48.2,46.4,93,30.00,7.0,North,11.5,-,N/A,,Overcast,350,2013-02-13 20:50:00
3:50 PM,48.2,46.4,93,30.00,7.0,North,11.5,-,N/A,,Overcast,350,2013-02-13 21:50:00
4:50 PM,48.2,46.4,93,30.00,7.0,North,9.2,-,N/A,,Mostly Cloudy,350,2013-02-13 22:50:00
6:15 PM,48.6,46.4,92,30.02,7.0,Calm,Calm,-,N/A,,Mostly Cloudy,0,2013-02-14 00:15:00
6:35 PM,48.2,46.4,93,30.02,7.0,Calm,Calm,-,N/A,,Scattered Clouds,0,2013-02-14 00:35:00
6:55 PM,48.2,46.4,93,30.02,7.0,Calm,Calm,-,N/A,,Scattered Clouds,0,2013-02-14 00:55:00
7:15 PM,48.2,46.4,93,30.03,7.0,Calm,Calm,-,N/A,,Clear,0,2013-02-14 01:15:00
7:35 PM,48.2,46.6,94,30.04,10.0,Calm,Calm,-,N/A,,Clear,0,2013-02-14 01:35:00
7:55 PM,48.0,46.9,96,30.05,7.0,Calm,Calm,-,N/A,,Scattered Clouds,0,2013-02-14 01:55:00
8:15 PM,47.8,47.3,98,30.05,7.0,Calm,Calm,-,N/A,,Clear,0,2013-02-14 02:15:00
8:35 PM,47.5,47.3,99,30.06,7.0,Calm,Calm,-,N/A,,Clear,0,2013-02-14 02:35:00
8:55 PM,47.1,47.1,100,30.05,7.0,Calm,Calm,-,N/A,,Clear,0,2013-02-14 02:55:00
9:15 PM,45.9,45.9,100,30.06,7.0,NW,3.5,-,N/A,,Clear,320,2013-02-14 03:15:00
9:35 PM,45.1,45.1,100,30.07,7.0,NNW,3.5,-,N/A,,Scattered Clouds,340,2013-02-14 03:35:00
10:15 PM,46.4,44.6,93,30.07,10.0,NNW,5.8,-,N/A,,Scattered Clouds,340,2013-02-14 04:15:00
10:35 PM,45.1,43.2,93,30.07,10.0,North,4.6,-,N/A,,Clear,350,2013-02-14 04:35:00
10:55 PM,43.9,42.1,93,30.07,10.0,North,5.8,-,N/A,,Clear,350,2013-02-14 04:55:00
11:15 PM,44.1,41.7,91,30.08,10.0,NNW,5.8,-,N/A,,Clear,340,2013-02-14 05:15:00
11:35 PM,43.0,41.0,93,30.07,10.0,NNW,5.8,-,N/A,,Clear,340,2013-02-14 05:35:00
11:55 PM,43.0,41.0,93,30.06,10.0,NNW,4.6,-,N/A,,Clear,340,2013-02-14 05:55:00